This demonstration page uses our WeatherBlox Daily Observations layout. Learn more.

Left ArrowRight Arrow

41.12389, -100.76542

Hourly Observations for June 30, 2022

Temp ( °F °C ) Dew Point ( °F °C ) Humidity (%) Winds ( mph kmh ) Pressure ( in mb ) Visibility ( mi km ) Precip ( " mm )
12:53 am 00:53 Clear 76 24.4 52 11.1 43 43 SW 7 11 29.88 1012 10 16 0.00 0.00
1:53 am 01:53 Clear 79 26.1 55 12.8 44 44 SSW 10 17 29.83 1010 10 16 0.00 0.00
2:53 am 02:53 Clear 78 25.6 57 13.9 48 48 S 7 11 29.81 1009 10 16 0.00 0.00
3:53 am 03:53 Clear 78 25.6 54 12.2 43 43 SW 6 9 29.82 1010 10 16 0.00 0.00
4:53 am 04:53 Clear 70 21.1 54 12.2 57 57 SW 5 7 29.82 1010 10 16 0.00 0.00
5:53 am 05:53 Clear 66 18.9 55 12.8 68 68 Calm 29.83 1010 10 16 0.00 0.00
6:53 am 06:53 Sunny 64 17.8 55 12.8 73 73 Calm 29.85 1011 10 16 0.00 0.00
7:53 am 07:53 Sunny 74 23.3 58 14.4 57 57 Calm 29.84 1010 10 16 0.00 0.00
8:53 am 08:53 Sunny 78 25.6 58 14.4 50 50 WSW 5 7 29.85 1011 10 16 0.00 0.00
9:53 am 09:53 Sunny 82 27.8 58 14.4 44 44 W 9 15 29.85 1011 10 16 0.00 0.00
10:53 am 10:53 Sunny 85 29.4 55 12.8 36 36 WNW 8 13 29.84 1011 10 16 0.00 0.00
11:53 am 11:53 Sunny 87 30.6 58 14.4 37 37 WNW 7 11 29.85 1011 10 16 0.00 0.00
12:53 pm 12:53 Sunny 90 32.2 57 13.9 33 33 W 7 11 29.85 1011 10 16 0.00 0.00
1:53 pm 13:53 Sunny 95 35 56 13.3 27 27 W 8 13 29.83 1010 10 16 0.00 0.00
2:53 pm 14:53 Sunny 94 34.4 52 11.1 24 24 W 13 20 29.83 1010 10 16 0.00 0.00
3:53 pm 15:53 Sunny 96 35.6 53 11.7 23 23 WNW 13 20 29.83 1010 10 16 0.00 0.00
4:53 pm 16:53 Mostly Sunny 95 35 50 10 22 22 N 7 11 29.83 1010 10 16 0.00 0.00
5:53 pm 17:53 Mostly Sunny 91 32.8 53 11.7 27 27 NNE 20 31 29.86 1011 10 16 0.00 0.00
6:53 pm 18:53 Sunny 88 31.1 55 12.8 33 33 NNE 13 20 29.87 1012 10 16 0.00 0.00
7:53 pm 19:53 Sunny 86 30 54 12.2 33 33 E 9 15 29.88 1012 10 16 0.00 0.00
8:53 pm 20:53 Sunny 83 28.3 57 13.9 41 41 NE 10 17 29.89 1012 10 16 0.00 0.00
9:53 pm 21:53 Clear 78 25.6 58 14.4 50 50 NE 13 20 29.90 1013 10 16 0.00 0.00
10:53 pm 22:53 Clear 76 24.4 58 14.4 54 54 NE 8 13 29.95 1014 10 16 0.00 0.00
11:53 pm 23:53 Clear 74 23.3 59 15 60 60 E 7 11 29.98 1015 10 16 0.00 0.00

Powered by AerisWeather